When you browse on this site, cookies collect data to enhance your experience and personalize the content and advertising you see.
Visit our Privacy Policy to learn more. By continuing to use the site, you agree to this use of cookies and data.
  • In Sweden
  • List of Countries
  • For 7 days
  • Water Temperature
  • Satellite Maps
  • Weather Map
  • Weather Widgets
  • user-avatar
    Login

    Hourly Weather Dalkow

    Today, 22 July, Monday

    Time Temperature Precipitation Wind Pressure Humidity
    00:00 +18°C° 0 mm 3 mps 747 mmHg 84%
    01:00 +17°C° 0 mm 3 mps 747 mmHg 87%
    02:00 +17°C° 0 mm 3 mps 748 mmHg 89%
    03:00 +17°C° 0 mm 3 mps 748 mmHg 91%
    04:00 +16°C° 0 mm 2 mps 748 mmHg 93%
    05:00 +17°C° 0 mm 2 mps 748 mmHg 86%
    06:00 +19°C° 0 mm 2 mps 748 mmHg 79%
    07:00 +20°C° 0 mm 2 mps 749 mmHg 72%
    08:00 +21°C° 0 mm 3 mps 749 mmHg 67%
    09:00 +22°C° 0 mm 3 mps 749 mmHg 62%
    10:00 +25°C° 0 mm 4 mps 749 mmHg 57%
    11:00 +25°C° 0.1 mm 4 mps 749 mmHg 56%
    12:00 +25°C° 0.1 mm 5 mps 749 mmHg 54%
    13:00 +26°C° 0.1 mm 5 mps 749 mmHg 52%
    14:00 +26°C° 0.1 mm 5 mps 748 mmHg 53%
    15:00 +25°C° 0.1 mm 5 mps 748 mmHg 53%
    16:00 +25°C° 0.1 mm 5 mps 748 mmHg 53%
    17:00 +23°C° 0 mm 5 mps 748 mmHg 57%
    18:00 +22°C° 0 mm 4 mps 748 mmHg 62%
    19:00 +21°C° 0 mm 3 mps 748 mmHg 66%
    20:00 +20°C° 0 mm 3 mps 748 mmHg 65%
    21:00 +19°C° 0 mm 3 mps 748 mmHg 64%
    22:00 +19°C° 0 mm 2 mps 748 mmHg 63%
    23:00 +18°C° 0 mm 2 mps 748 mmHg 65%

    Tomorrow, 23 July, Tuesday

    Time Temperature Precipitation Wind Pressure Humidity
    00:00 +18°C° 0 mm 2 mps 748 mmHg 67%
    01:00 +17°C° 0 mm 3 mps 748 mmHg 70%
    02:00 +17°C° 0 mm 3 mps 748 mmHg 70%
    03:00 +17°C° 0 mm 2 mps 748 mmHg 70%
    04:00 +17°C° 0 mm 2 mps 748 mmHg 70%
    05:00 +17°C° 0 mm 3 mps 748 mmHg 72%
    06:00 +17°C° 0 mm 3 mps 748 mmHg 75%
    07:00 +17°C° 0 mm 3 mps 748 mmHg 78%
    08:00 +17°C° 0 mm 3 mps 748 mmHg 78%
    09:00 +17°C° 0 mm 3 mps 748 mmHg 78%
    10:00 +17°C° 0 mm 2 mps 748 mmHg 79%
    11:00 +17°C° 0 mm 2 mps 748 mmHg 79%
    12:00 +17°C° 0 mm 2 mps 748 mmHg 80%
    13:00 +17°C° 0 mm 2 mps 747 mmHg 80%
    14:00 +17°C° 0 mm 2 mps 747 mmHg 79%
    15:00 +18°C° 0 mm 2 mps 747 mmHg 79%
    16:00 +18°C° 0 mm 2 mps 747 mmHg 78%
    17:00 +18°C° 0 mm 2 mps 747 mmHg 80%
    18:00 +20°C° 0 mm 1 mps 747 mmHg 81%
    19:00 +20°C° 0 mm 1 mps 747 mmHg 82%
    20:00 +19°C° 0 mm 1 mps 747 mmHg 84%
    21:00 +19°C° 0 mm 1 mps 747 mmHg 85%
    22:00 +19°C° 0 mm 1 mps 747 mmHg 87%
    23:00 +18°C° 0 mm 1 mps 747 mmHg 88%

    Day after tomorrow, 24 July, Wednesday

    Time Temperature Precipitation Wind Pressure Humidity
    00:00 +18°C° 0 mm 1 mps 747 mmHg 89%
    01:00 +18°C° 0 mm 1 mps 747 mmHg 91%
    02:00 +18°C° 0 mm 1 mps 746 mmHg 90%
    03:00 +18°C° 0 mm 1 mps 746 mmHg 90%
    04:00 +18°C° 0 mm 1 mps 746 mmHg 89%
    05:00 +19°C° 0.1 mm 1 mps 746 mmHg 86%
    06:00 +19°C° 0.1 mm 2 mps 746 mmHg 84%
    07:00 +20°C° 0.1 mm 2 mps 747 mmHg 81%
    08:00 +21°C° 0.2 mm 2 mps 747 mmHg 77%
    09:00 +23°C° 0.2 mm 2 mps 747 mmHg 73%
    10:00 +24°C° 0.2 mm 3 mps 747 mmHg 69%
    11:00 +25°C° 0.1 mm 3 mps 747 mmHg 66%
    12:00 +25°C° 0.1 mm 3 mps 746 mmHg 62%
    13:00 +26°C° 0.1 mm 3 mps 746 mmHg 59%
    14:00 +26°C° 0 mm 3 mps 746 mmHg 58%
    15:00 +26°C° 0 mm 3 mps 746 mmHg 57%
    16:00 +27°C° 0 mm 2 mps 746 mmHg 56%
    17:00 +26°C° 0 mm 2 mps 746 mmHg 60%
    18:00 +25°C° 0 mm 2 mps 746 mmHg 64%
    19:00 +24°C° 0 mm 1 mps 746 mmHg 68%
    20:00 +23°C° 0 mm 1 mps 746 mmHg 72%
    21:00 +22°C° 0 mm 1 mps 747 mmHg 76%
    22:00 +19°C° 0 mm 0 mps 747 mmHg 80%
    23:00 +18°C° 0 mm 0 mps 747 mmHg 81%

    25 July, Thursday

    Time Temperature Precipitation Wind Pressure Humidity
    00:00 +18°C° 0 mm 0 mps 747 mmHg 82%
    01:00 +18°C° 0 mm 0 mps 747 mmHg 83%
    02:00 +17°C° 0 mm 0 mps 747 mmHg 84%
    03:00 +17°C° 0 mm 0 mps 747 mmHg 85%
    04:00 +17°C° 0 mm 0 mps 747 mmHg 86%
    05:00 +18°C° 0 mm 0 mps 747 mmHg 80%
    06:00 +20°C° 0 mm 0 mps 747 mmHg 75%
    07:00 +21°C° 0 mm 0 mps 748 mmHg 70%
    08:00 +25°C° 0 mm 1 mps 748 mmHg 65%
    09:00 +26°C° 0 mm 1 mps 748 mmHg 60%
    10:00 +27°C° 0 mm 2 mps 748 mmHg 56%
    11:00 +28°C° 0.1 mm 2 mps 748 mmHg 54%
    12:00 +28°C° 0.1 mm 2 mps 748 mmHg 52%
    13:00 +29°C° 0.1 mm 2 mps 747 mmHg 50%
    14:00 +28°C° 0 mm 2 mps 747 mmHg 52%
    15:00 +28°C° 0 mm 2 mps 747 mmHg 53%
    16:00 +28°C° 0 mm 2 mps 747 mmHg 55%
    17:00 +27°C° 0 mm 3 mps 747 mmHg 59%
    18:00 +26°C° 0 mm 3 mps 747 mmHg 63%
    19:00 +25°C° 0 mm 3 mps 747 mmHg 66%
    20:00 +24°C° 0 mm 3 mps 747 mmHg 67%
    21:00 +22°C° 0 mm 3 mps 747 mmHg 68%
    22:00 +21°C° 0 mm 3 mps 747 mmHg 69%
    23:00 +20°C° 0 mm 3 mps 747 mmHg 73%

    26 July, Friday

    Time Temperature Precipitation Wind Pressure Humidity
    00:00 +19°C° 0 mm 3 mps 747 mmHg 76%
    01:00 +19°C° 0 mm 2 mps 747 mmHg 80%
    02:00 +18°C° 0 mm 3 mps 747 mmHg 82%
    03:00 +18°C° 0 mm 3 mps 747 mmHg 85%
    04:00 +18°C° 0 mm 3 mps 747 mmHg 87%
    05:00 +19°C° 0 mm 3 mps 747 mmHg 81%
    06:00 +21°C° 0 mm 3 mps 747 mmHg 76%
    07:00 +22°C° 0 mm 4 mps 747 mmHg 70%
    08:00 +23°C° 0 mm 4 mps 747 mmHg 65%
    09:00 +26°C° 0 mm 4 mps 747 mmHg 60%
    10:00 +27°C° 0 mm 5 mps 747 mmHg 55%
    11:00 +28°C° 0 mm 5 mps 747 mmHg 53%
    12:00 +29°C° 0 mm 5 mps 746 mmHg 51%
    13:00 +30°C° 0 mm 5 mps 746 mmHg 49%
    14:00 +30°C° 0 mm 5 mps 746 mmHg 49%
    15:00 +30°C° 0 mm 5 mps 745 mmHg 50%
    16:00 +30°C° 0 mm 5 mps 745 mmHg 50%
    17:00 +29°C° 0 mm 5 mps 745 mmHg 55%
    18:00 +27°C° 0 mm 4 mps 745 mmHg 60%
    19:00 +26°C° 0 mm 4 mps 744 mmHg 65%
    20:00 +25°C° 0 mm 4 mps 744 mmHg 68%
    21:00 +23°C° 0 mm 4 mps 744 mmHg 70%
    22:00 +22°C° 0 mm 4 mps 745 mmHg 73%
    23:00 +22°C° 0 mm 4 mps 744 mmHg 76%

    27 July, Saturday

    Time Temperature Precipitation Wind Pressure Humidity
    00:00 +21°C° 0 mm 4 mps 744 mmHg 79%
    01:00 +20°C° 0 mm 3 mps 744 mmHg 82%
    02:00 +20°C° 0 mm 3 mps 744 mmHg 83%
    03:00 +19°C° 0 mm 3 mps 744 mmHg 84%
    04:00 +19°C° 0 mm 3 mps 743 mmHg 85%
    05:00 +20°C° 0 mm 4 mps 743 mmHg 80%
    06:00 +21°C° 0 mm 4 mps 743 mmHg 74%
    07:00 +23°C° 0 mm 5 mps 743 mmHg 69%
    08:00 +25°C° 0 mm 5 mps 743 mmHg 62%
    09:00 +27°C° 0 mm 5 mps 743 mmHg 56%
    10:00 +29°C° 0 mm 6 mps 743 mmHg 49%
    11:00 +29°C° 0 mm 6 mps 743 mmHg 47%
    12:00 +30°C° 0 mm 6 mps 742 mmHg 45%
    13:00 +32°C° 0 mm 6 mps 742 mmHg 43%
    14:00 +32°C° 0 mm 6 mps 741 mmHg 43%
    15:00 +32°C° 0 mm 6 mps 741 mmHg 43%
    16:00 +32°C° 0 mm 6 mps 741 mmHg 44%
    17:00 +30°C° 0 mm 5 mps 740 mmHg 50%
    18:00 +28°C° 0 mm 5 mps 740 mmHg 56%
    19:00 +27°C° 0 mm 4 mps 740 mmHg 63%
    20:00 +26°C° 0 mm 4 mps 740 mmHg 65%
    21:00 +23°C° 0 mm 4 mps 740 mmHg 68%
    22:00 +22°C° 0 mm 4 mps 740 mmHg 71%
    23:00 +22°C° 0 mm 4 mps 740 mmHg 73%
    Show more